SUOMI NPP

Last updated on Sat Aug 15 2026 00:02:40 GMT+0000 (Coordinated Universal Time)

1 37849U 11061A 26226.63230848 .00000020 00000+0 30677-4 0 9990 2 37849 98.7966 167.1138 0002334 130.1180 230.0201 14.19527663766732
UTC large
Height (km)
Speed (km/s)
/
Latitude / Longitude
Inclination (degrees)
Orbital Period (minutes)
Azimuth
Elevation
Range (km)
Doppler Factor

Next 0 passes for location: London (51.5072 / 0.1276)

No passes found over London.
SUOMI NPP